Weather in Kuzhbal

Russia / Kostroma Oblast     58°26′01″N   44°06′54″E
temp.,
°C
wind,
m/s
gust,
m/s
humid.,
%
clouds,
%
prec.,
mm/h
press.,
hPa
HPBL,
m
11 april, sun
sun1100:00−2s29930 0.0 1026169
03:00−2s311921 0.0 1026210
06:00−2s311922 0.0 1026245
09:00+4sw47795 0.0 1027401
12:00+9wsw367454 0.0 1028900
15:00+8w258597 0.1 1029285
18:00+6wnw119562 0.2 103118
21:00+3sw119755 0.2 103310
12 april, mon
mon1200:00−1nnw119768 0.0 103610
03:000ne119787 0.0 103737
06:00+1e258949 0.0 103897
09:00+6se247320 0.0 1038338
12:00+10se226810 0.0 1038805
15:00+12se236557 0.0 10371087
18:00+10se2683100 0.0 1036168
21:00+6se31093100 0.0 1036284
13 april, tue
tue1300:00+4se31094100 0.0 1035318
03:00+4se31096100 0.0 1034327
06:00+4se389798 0.0 1032277
09:00+8s3790100 0.0 1031359
12:00+14s486798 0.0 1029721
15:00+17ssw4862100 0.0 10271004
18:00+13ssw3974100 0.0 1027233
21:00+10s31186100 0.0 1027244
14 april, wed
wed1400:00+7s2984100 0.0 1026167
03:00+6s2886100 0.0 1026147
06:00+6s278484 0.0 1025139
09:00+12ssw376173 0.0 1025347
12:00+16ssw474965 0.0 1023775
15:00+18ssw574572 0.0 10221261
18:00+15ssw495348 0.0 1021331
21:00+11ssw2969100 0.0 1021148
15 april, thu
thu1500:00+8ssw297898 0.0 1021151
03:00+7sw2283100 0.0 102027
06:00+7w118293 0.0 102011
09:00+11nw1167100 0.0 1019318
12:00+14nw2257100 0.0 1019808
15:00+13n436473 0.0 1019973
18:00+9n4776100 0.0 1019576
21:00+3nne51092100 0.0 1021485